Soldotna, AK

3:20 AM AKDT on September 21, 2017 (GMT -0800)
Soldotna

Weather History for PASX - October, 2011

Change the Weather History Date:

Saturday, October 22, 2011

  Actual Average Record
Temperature  
Mean Temperature 34 °F -  
Max Temperature 41 °F 39 °F 59 °F (1957)
Min Temperature 28 °F 24 °F -2 °F (1996)
Degree Days  
Heating Degree Days 30    
Moisture  
Dew Point 30 °F    
Average Humidity 82    
Maximum Humidity 100    
Minimum Humidity 65    
Precipitation  
Precipitation 0.00 in - - ()
Sea Level Pressure  
Sea Level Pressure 29.42 in    
Wind  
Wind Speed 0 mph (East)    
Max Wind Speed 5 mph    
Max Gust Speed -    
Visibility 10 miles    
Events      
Averages and records for this station are not official NWS values.
T = Trace of Precipitation, MM = Missing Value Source: NWS Daily Summary

Daily Weather History Graph

Daily Weather History Graph

Search for Another Location

Airport or City:

Trip Planner

Search our weather history database for the weather conditions in past years. The results will help you decide how hot, cold, wet, or windy it might be!

Date:

Astronomy

Oct. 22, 2011 Rise Set
Actual Time 9:02 AM AKDT 6:33 PM AKDT
Civil Twilight 8:18 AM AKDT 7:17 PM AKDT
Nautical Twilight 7:29 AM AKDT 8:06 PM AKDT
Astronomical Twilight 6:40 AM AKDT 8:55 PM AKDT
Moon 3:01 AM AKDT (10/22) 4:55 PM AKDT (10/22)
Length of Visible Light 10h 59m
Length of Day
9h 31m
Waning Crescent, 22% of the Moon is Illuminated
Oct 22
Waning Crescent
Oct 26
New
Nov 2
First Quarter
Nov 10
Full
Nov 18
Last Quarter

Hourly Weather History & Observations

Time (AKDT) Temp. Windchill Dew Point Humidity Pressure Visibility Wind Dir Wind Speed Gust Speed Precip Events Conditions
12:16 AM 37.4 °F - 32.0 °F 81% 29.34 in 10.0 mi Calm Calm - N/A   Overcast
12:36 AM 37.4 °F - 32.0 °F 81% 29.34 in 10.0 mi Calm Calm - N/A   Overcast
12:56 AM 37.4 °F - 30.2 °F 75% 29.34 in 10.0 mi Calm Calm - N/A   Overcast
1:16 AM 37.4 °F - 30.2 °F 75% 29.35 in 10.0 mi Calm Calm - N/A   Mostly Cloudy
1:36 AM 35.6 °F - 30.2 °F 81% 29.35 in 10.0 mi Calm Calm - N/A   Mostly Cloudy
1:56 AM 35.6 °F - 30.2 °F 81% 29.35 in 10.0 mi Calm Calm - N/A   Mostly Cloudy
2:16 AM 33.8 °F - 30.2 °F 87% 29.36 in - Calm Calm - N/A   Overcast
2:36 AM 33.8 °F - 30.2 °F 87% 29.36 in - Calm Calm - N/A   Overcast
2:56 AM 33.8 °F - 28.4 °F 81% 29.36 in 10.0 mi Calm Calm - N/A   Overcast
3:16 AM 32.0 °F - 28.4 °F 87% 29.36 in 10.0 mi Calm Calm - N/A   Overcast
3:36 AM 33.8 °F 30.8 °F 30.2 °F 87% 29.36 in - East 3.5 mph - N/A   Overcast
3:56 AM 33.8 °F - 30.2 °F 87% 29.37 in - Calm Calm - N/A   Overcast
4:16 AM 35.6 °F - 30.2 °F 81% 29.37 in - Calm Calm - N/A   Overcast
4:36 AM 33.8 °F - 30.2 °F 87% 29.37 in - Calm Calm - N/A   Overcast
4:56 AM 33.8 °F - 30.2 °F 87% 29.38 in 10.0 mi Calm Calm - N/A   Overcast
5:16 AM 33.8 °F - 30.2 °F 87% 29.38 in - Calm Calm - N/A   Mostly Cloudy
5:36 AM 33.8 °F - 30.2 °F 87% 29.38 in - Calm Calm - N/A   Unknown
5:56 AM 33.8 °F - 30.2 °F 87% 29.38 in 10.0 mi Calm Calm - N/A   Mostly Cloudy
6:16 AM 32.0 °F - 30.2 °F 93% 29.38 in 10.0 mi Calm Calm - N/A   Partly Cloudy
6:36 AM 32.0 °F - 28.4 °F 87% 29.39 in - Calm Calm - N/A   Unknown
6:56 AM 30.2 °F - 28.4 °F 93% 29.39 in - Calm Calm - N/A   Unknown
7:16 AM 30.2 °F - 28.4 °F 93% 29.39 in - Calm Calm - N/A   Unknown
7:36 AM 30.2 °F - 28.4 °F 93% 29.39 in 10.0 mi Calm Calm - N/A   Clear
7:56 AM 30.2 °F - 28.4 °F 93% 29.40 in - Calm Calm - N/A   Unknown
8:16 AM 30.2 °F - 28.4 °F 93% 29.40 in - Calm Calm - N/A   Overcast
8:36 AM 28.4 °F - 28.4 °F 100% 29.41 in - Calm Calm - N/A   Overcast
8:56 AM 28.4 °F - 26.6 °F 93% 29.41 in 10.0 mi Calm Calm - N/A   Mostly Cloudy
9:16 AM 28.4 °F - 26.6 °F 93% 29.42 in - Calm Calm - N/A   Unknown
9:36 AM 28.4 °F - 26.6 °F 93% 29.42 in - Calm Calm - N/A   Unknown
9:56 AM 28.4 °F - 26.6 °F 93% 29.43 in - Calm Calm - N/A   Unknown
10:16 AM 28.4 °F - 26.6 °F 93% 29.43 in - Calm Calm - N/A   Unknown
10:36 AM 28.4 °F - 26.6 °F 93% 29.43 in - Calm Calm - N/A   Unknown
10:56 AM 30.2 °F - 28.4 °F 93% 29.44 in - Calm Calm - N/A   Mostly Cloudy
11:16 AM 32.0 °F - 30.2 °F 93% 29.44 in - Calm Calm - N/A   Overcast
11:36 AM 32.0 °F - 30.2 °F 93% 29.45 in 10.0 mi Calm Calm - N/A   Scattered Clouds
11:56 AM 33.8 °F - 30.2 °F 87% 29.45 in 10.0 mi Calm Calm - N/A   Mostly Cloudy
12:16 PM 35.6 °F - 30.2 °F 81% 29.45 in 10.0 mi Calm Calm - N/A   Mostly Cloudy
12:36 PM 39.2 °F - 30.2 °F 70% 29.46 in 10.0 mi Calm Calm - N/A   Mostly Cloudy
12:56 PM 41.0 °F - 30.2 °F 65% 29.46 in 10.0 mi Calm Calm - N/A   Mostly Cloudy
1:16 PM 41.0 °F - 30.2 °F 65% 29.46 in 10.0 mi Calm Calm - N/A   Overcast
1:36 PM 41.0 °F - 30.2 °F 65% 29.46 in 10.0 mi Calm Calm - N/A   Mostly Cloudy
1:56 PM 41.0 °F 38.0 °F 30.2 °F 65% 29.47 in 10.0 mi ESE 4.6 mph - N/A   Mostly Cloudy
2:16 PM 41.0 °F 39.0 °F 30.2 °F 65% 29.47 in 10.0 mi ESE 3.5 mph - N/A   Overcast
2:36 PM 41.0 °F - 30.2 °F 65% 29.47 in 10.0 mi Calm Calm - N/A   Overcast
2:56 PM 41.0 °F - 30.2 °F 65% 29.47 in 10.0 mi Calm Calm - N/A   Overcast
3:16 PM 41.0 °F - 30.2 °F 65% 29.47 in 10.0 mi Calm Calm - N/A   Overcast
3:36 PM 41.0 °F - 30.2 °F 65% 29.48 in 10.0 mi Calm Calm - N/A   Overcast
3:56 PM 41.0 °F 38.0 °F 30.2 °F 65% 29.48 in 10.0 mi East 4.6 mph - N/A   Overcast
4:16 PM 39.2 °F 35.9 °F 30.2 °F 70% 29.48 in 10.0 mi ENE 4.6 mph - N/A   Overcast
4:36 PM 39.2 °F 35.9 °F 33.8 °F 81% 29.48 in 10.0 mi East 4.6 mph - N/A   Overcast
4:56 PM 39.2 °F 37.0 °F 30.2 °F 70% 29.48 in 10.0 mi NE 3.5 mph - N/A   Overcast
5:16 PM 39.2 °F - 32.0 °F 75% 29.49 in 9.0 mi Calm Calm - N/A   Overcast
5:36 PM 39.2 °F - 32.0 °F 75% 29.49 in 9.0 mi Calm Calm - N/A   Overcast
5:56 PM 37.4 °F - 32.0 °F 81% 29.49 in 8.0 mi Calm Calm - N/A   Overcast
6:16 PM 37.4 °F - 33.8 °F 87% 29.50 in 8.0 mi Calm Calm - N/A   Overcast
6:36 PM 37.4 °F - 33.8 °F 87% 29.50 in 9.0 mi Calm Calm - N/A   Overcast
6:56 PM 37.4 °F - 33.8 °F 87% 29.50 in 10.0 mi Calm Calm - N/A   Overcast
7:16 PM 37.4 °F - 33.8 °F 87% 29.51 in 9.0 mi Calm Calm - N/A   Overcast
7:36 PM 37.4 °F - 33.8 °F 87% 29.51 in 8.0 mi Calm Calm - N/A   Overcast
7:56 PM 37.4 °F - 35.6 °F 93% 29.52 in 10.0 mi Calm Calm - N/A   Overcast
8:16 PM 35.6 °F - 33.8 °F 93% 29.52 in 9.0 mi Calm Calm - N/A   Overcast
8:36 PM 35.6 °F - 33.8 °F 93% 29.53 in 8.0 mi Calm Calm - N/A   Overcast
8:56 PM 35.6 °F - 33.8 °F 93% 29.54 in 7.0 mi Calm Calm - N/A   Overcast
9:16 PM 35.6 °F - 33.8 °F 93% 29.54 in 7.0 mi Calm Calm - N/A   Overcast
9:36 PM 35.6 °F - 33.8 °F 93% 29.54 in 10.0 mi Calm Calm - N/A   Overcast
9:56 PM 35.6 °F - 33.8 °F 93% 29.54 in 10.0 mi Calm Calm - N/A   Overcast
10:16 PM 35.6 °F - 33.8 °F 93% 29.55 in 10.0 mi Calm Calm - N/A   Overcast
10:36 PM 35.6 °F - 33.8 °F 93% 29.56 in 10.0 mi Calm Calm - N/A   Overcast
10:56 PM 35.6 °F - 33.8 °F 93% 29.56 in - Calm Calm - N/A   Overcast
11:16 PM 35.6 °F - 33.8 °F 93% 29.56 in - Calm Calm - N/A   Overcast
11:36 PM 35.6 °F - 33.8 °F 93% 29.57 in 10.0 mi Calm Calm - N/A   Overcast
11:56 PM 35.6 °F - 33.8 °F 93% 29.57 in 10.0 mi Calm Calm - N/A   Overcast